Time,TemperatureF,DewpointF,PressureIn,WindDirection,WindDirectionDegrees,WindSpeedMPH,WindSpeedGustMPH,Humidity,HourlyPrecipIn,Conditions,Clouds,dailyrainin,SoftwareType,DateUTC
2013-04-27 00:00:00,46.0,36.0,-100.00,WNW,303,0.0,4.0,68,-99.99,,,-99.99,,2013-04-27 04:00:00,
2013-04-27 00:23:00,46.0,36.0,-100.00,WNW,303,0.0,4.0,68,-99.99,,,-99.99,,2013-04-27 04:23:00,
2013-04-27 00:33:00,46.0,36.0,-100.00,WNW,303,0.0,4.0,68,-99.99,,,-99.99,,2013-04-27 04:33:00,
2013-04-27 00:43:00,46.0,36.0,-100.00,WNW,303,0.0,4.0,68,-99.99,,,-99.99,,2013-04-27 04:43:00,
2013-04-27 00:53:00,46.0,36.0,-100.00,WNW,303,0.0,4.0,68,-99.99,,,-99.99,,2013-04-27 04:53:00,
2013-04-27 01:00:00,45.0,37.0,-100.00,NW,323,0.0,0.0,73,-99.99,,,-99.99,,2013-04-27 05:00:00,
2013-04-27 01:22:00,45.0,37.0,-100.00,NW,323,0.0,0.0,73,-99.99,,,-99.99,,2013-04-27 05:22:00,
2013-04-27 01:32:00,45.0,37.0,-100.00,NW,323,0.0,0.0,73,-99.99,,,-99.99,,2013-04-27 05:32:00,
2013-04-27 01:42:00,45.0,37.0,-100.00,NW,323,0.0,0.0,73,-99.99,,,-99.99,,2013-04-27 05:42:00,
2013-04-27 01:52:00,45.0,37.0,-100.00,NW,323,0.0,0.0,73,-99.99,,,-99.99,,2013-04-27 05:52:00,
2013-04-27 02:00:00,46.0,35.0,-100.00,NW,308,0.0,3.0,64,-99.99,,,-99.99,,2013-04-27 06:00:00,
2013-04-27 02:22:00,46.0,35.0,-100.00,NW,308,0.0,3.0,64,-99.99,,,-99.99,,2013-04-27 06:22:00,
2013-04-27 02:32:00,46.0,35.0,-100.00,NW,308,0.0,3.0,64,-99.99,,,-99.99,,2013-04-27 06:32:00,
2013-04-27 02:42:00,46.0,35.0,-100.00,NW,308,0.0,3.0,64,-99.99,,,-99.99,,2013-04-27 06:42:00,
2013-04-27 02:52:00,46.0,35.0,-100.00,NW,308,0.0,3.0,64,-99.99,,,-99.99,,2013-04-27 06:52:00,
2013-04-27 03:00:00,46.0,34.0,-100.00,NNW,336,0.0,0.0,63,-99.99,,,-99.99,,2013-04-27 07:00:00,
2013-04-27 03:22:00,46.0,34.0,-100.00,NNW,336,0.0,0.0,63,-99.99,,,-99.99,,2013-04-27 07:22:00,
2013-04-27 03:32:00,46.0,34.0,-100.00,NNW,336,0.0,0.0,63,-99.99,,,-99.99,,2013-04-27 07:32:00,
2013-04-27 03:42:00,46.0,34.0,-100.00,NNW,336,0.0,0.0,63,-99.99,,,-99.99,,2013-04-27 07:42:00,
2013-04-27 03:52:00,46.0,34.0,-100.00,NNW,336,0.0,0.0,63,-99.99,,,-99.99,,2013-04-27 07:52:00,
2013-04-27 04:00:00,48.0,32.0,-100.00,NNE,19,5.0,10.0,54,-99.99,,,-99.99,,2013-04-27 08:00:00,
2013-04-27 04:33:00,48.0,32.0,-100.00,NNE,19,5.0,10.0,54,-99.99,,,-99.99,,2013-04-27 08:33:00,
2013-04-27 04:42:00,48.0,32.0,-100.00,NNE,19,5.0,10.0,54,-99.99,,,-99.99,,2013-04-27 08:42:00,
2013-04-27 04:52:00,48.0,32.0,-100.00,NNE,19,5.0,10.0,54,-99.99,,,-99.99,,2013-04-27 08:52:00,
2013-04-27 05:00:00,46.0,33.0,-100.00,North,2,0.0,7.0,60,-99.99,,,-99.99,,2013-04-27 09:00:00,
2013-04-27 05:22:00,46.0,33.0,-100.00,North,2,0.0,7.0,60,-99.99,,,-99.99,,2013-04-27 09:22:00,
2013-04-27 05:33:00,46.0,33.0,-100.00,North,2,0.0,7.0,60,-99.99,,,-99.99,,2013-04-27 09:33:00,
2013-04-27 05:43:00,46.0,33.0,-100.00,North,2,0.0,7.0,60,-99.99,,,-99.99,,2013-04-27 09:43:00,
2013-04-27 05:53:00,46.0,33.0,-100.00,North,2,0.0,7.0,60,-99.99,,,-99.99,,2013-04-27 09:53:00,
2013-04-27 06:00:00,46.0,32.0,-100.00,North,5,2.0,3.0,59,-99.99,,,-99.99,,2013-04-27 10:00:00,
2013-04-27 06:33:00,46.0,32.0,-100.00,North,5,2.0,3.0,59,-99.99,,,-99.99,,2013-04-27 10:33:00,
2013-04-27 06:42:00,46.0,32.0,-100.00,North,5,2.0,3.0,59,-99.99,,,-99.99,,2013-04-27 10:42:00,
2013-04-27 06:52:00,46.0,32.0,-100.00,North,5,2.0,3.0,59,-99.99,,,-99.99,,2013-04-27 10:52:00,
2013-04-27 07:00:00,48.0,33.0,-100.00,North,8,0.0,3.0,55,-99.99,,,-99.99,,2013-04-27 11:00:00,
2013-04-27 07:22:00,48.0,33.0,-100.00,North,8,0.0,3.0,55,-99.99,,,-99.99,,2013-04-27 11:22:00,
2013-04-27 07:32:00,48.0,33.0,-100.00,North,8,0.0,3.0,55,-99.99,,,-99.99,,2013-04-27 11:32:00,
2013-04-27 07:42:00,48.0,33.0,-100.00,North,8,0.0,3.0,55,-99.99,,,-99.99,,2013-04-27 11:42:00,
2013-04-27 07:52:00,48.0,33.0,-100.00,North,8,0.0,3.0,55,-99.99,,,-99.99,,2013-04-27 11:52:00,
2013-04-27 08:00:00,52.0,31.0,-100.00,NE,53,6.0,10.0,45,-99.99,,,-99.99,,2013-04-27 12:00:00,
2013-04-27 08:22:00,52.0,31.0,-100.00,NE,53,6.0,10.0,45,-99.99,,,-99.99,,2013-04-27 12:22:00,
2013-04-27 08:32:00,52.0,31.0,-100.00,NE,53,6.0,10.0,45,-99.99,,,-99.99,,2013-04-27 12:32:00,
2013-04-27 08:42:00,52.0,31.0,-100.00,NE,53,6.0,10.0,45,-99.99,,,-99.99,,2013-04-27 12:42:00,
2013-04-27 08:52:00,52.0,31.0,-100.00,NE,53,6.0,10.0,45,-99.99,,,-99.99,,2013-04-27 12:52:00,
2013-04-27 09:00:00,54.0,26.0,-100.00,NE,41,3.0,12.0,33,-99.99,,,-99.99,,2013-04-27 13:00:00,
2013-04-27 09:22:00,54.0,26.0,-100.00,NE,41,3.0,12.0,33,-99.99,,,-99.99,,2013-04-27 13:22:00,
2013-04-27 09:32:00,54.0,26.0,-100.00,NE,41,3.0,12.0,33,-99.99,,,-99.99,,2013-04-27 13:32:00,
2013-04-27 09:42:00,54.0,26.0,-100.00,NE,41,3.0,12.0,33,-99.99,,,-99.99,,2013-04-27 13:42:00,
2013-04-27 09:52:00,54.0,26.0,-100.00,NE,41,3.0,12.0,33,-99.99,,,-99.99,,2013-04-27 13:52:00,
2013-04-27 10:00:00,57.0,27.0,-100.00,NE,48,5.0,11.0,32,-99.99,,,-99.99,,2013-04-27 14:00:00,
2013-04-27 10:22:00,57.0,27.0,-100.00,NE,48,5.0,11.0,32,-99.99,,,-99.99,,2013-04-27 14:22:00,
2013-04-27 10:32:00,57.0,27.0,-100.00,NE,48,5.0,11.0,32,-99.99,,,-99.99,,2013-04-27 14:32:00,
2013-04-27 10:42:00,57.0,27.0,-100.00,NE,48,5.0,11.0,32,-99.99,,,-99.99,,2013-04-27 14:42:00,
2013-04-27 10:52:00,57.0,27.0,-100.00,NE,48,5.0,11.0,32,-99.99,,,-99.99,,2013-04-27 14:52:00,
2013-04-27 11:00:00,58.0,30.0,-100.00,ESE,103,4.0,9.0,34,-99.99,,,-99.99,,2013-04-27 15:00:00,
2013-04-27 11:22:00,58.0,30.0,-100.00,ESE,103,4.0,9.0,34,-99.99,,,-99.99,,2013-04-27 15:22:00,
2013-04-27 11:33:00,58.0,30.0,-100.00,ESE,103,4.0,9.0,34,-99.99,,,-99.99,,2013-04-27 15:33:00,
2013-04-27 11:43:00,58.0,30.0,-100.00,ESE,103,4.0,9.0,34,-99.99,,,-99.99,,2013-04-27 15:43:00,
2013-04-27 11:53:00,58.0,30.0,-100.00,ESE,103,4.0,9.0,34,-99.99,,,-99.99,,2013-04-27 15:53:00,
2013-04-27 12:00:00,57.0,29.0,-100.00,ESE,102,8.0,11.0,34,-99.99,,,-99.99,,2013-04-27 16:00:00,
2013-04-27 12:23:00,57.0,29.0,-100.00,ESE,102,8.0,11.0,34,-99.99,,,-99.99,,2013-04-27 16:23:00,
2013-04-27 12:33:00,57.0,29.0,-100.00,ESE,102,8.0,11.0,34,-99.99,,,-99.99,,2013-04-27 16:33:00,
2013-04-27 12:42:00,57.0,29.0,-100.00,ESE,102,8.0,11.0,34,-99.99,,,-99.99,,2013-04-27 16:42:00,
2013-04-27 12:53:00,57.0,29.0,-100.00,ESE,102,8.0,11.0,34,-99.99,,,-99.99,,2013-04-27 16:53:00,
2013-04-27 13:00:00,60.0,31.0,-100.00,SE,129,6.0,11.0,33,-99.99,,,-99.99,,2013-04-27 17:00:00,
2013-04-27 13:22:00,60.0,31.0,-100.00,SE,129,6.0,11.0,33,-99.99,,,-99.99,,2013-04-27 17:22:00,
2013-04-27 13:32:00,60.0,31.0,-100.00,SE,129,6.0,11.0,33,-99.99,,,-99.99,,2013-04-27 17:32:00,
2013-04-27 13:42:00,60.0,31.0,-100.00,SE,129,6.0,11.0,33,-99.99,,,-99.99,,2013-04-27 17:42:00,
2013-04-27 13:53:00,60.0,31.0,-100.00,SE,129,6.0,11.0,33,-99.99,,,-99.99,,2013-04-27 17:53:00,
2013-04-27 14:00:00,60.0,27.0,-100.00,ESE,110,6.0,12.0,28,-99.99,,,-99.99,,2013-04-27 18:00:00,
2013-04-27 14:22:00,60.0,27.0,-100.00,ESE,110,6.0,12.0,28,-99.99,,,-99.99,,2013-04-27 18:22:00,
2013-04-27 14:32:00,60.0,27.0,-100.00,ESE,110,6.0,12.0,28,-99.99,,,-99.99,,2013-04-27 18:32:00,
2013-04-27 14:42:00,60.0,27.0,-100.00,ESE,110,6.0,12.0,28,-99.99,,,-99.99,,2013-04-27 18:42:00,
2013-04-27 14:52:00,60.0,27.0,-100.00,ESE,110,6.0,12.0,28,-99.99,,,-99.99,,2013-04-27 18:52:00,
2013-04-27 15:00:00,62.0,27.0,-100.00,ENE,65,4.0,11.0,26,-99.99,,,-99.99,,2013-04-27 19:00:00,
2013-04-27 15:32:00,62.0,27.0,-100.00,ENE,65,4.0,11.0,26,-99.99,,,-99.99,,2013-04-27 19:32:00,
2013-04-27 15:42:00,62.0,27.0,-100.00,ENE,65,4.0,11.0,26,-99.99,,,-99.99,,2013-04-27 19:42:00,
2013-04-27 15:53:00,62.0,27.0,-100.00,ENE,65,4.0,11.0,26,-99.99,,,-99.99,,2013-04-27 19:53:00,
2013-04-27 16:00:00,62.0,27.0,-100.00,SE,125,5.0,12.0,26,-99.99,,,-99.99,,2013-04-27 20:00:00,
2013-04-27 16:22:00,62.0,27.0,-100.00,SE,125,5.0,12.0,26,-99.99,,,-99.99,,2013-04-27 20:22:00,
2013-04-27 16:32:00,62.0,27.0,-100.00,SE,125,5.0,12.0,26,-99.99,,,-99.99,,2013-04-27 20:32:00,
2013-04-27 16:42:00,62.0,27.0,-100.00,SE,125,5.0,12.0,26,-99.99,,,-99.99,,2013-04-27 20:42:00,
2013-04-27 16:52:00,62.0,27.0,-100.00,SE,125,5.0,12.0,26,-99.99,,,-99.99,,2013-04-27 20:52:00,
2013-04-27 17:00:00,61.0,25.0,-100.00,SE,127,5.0,12.0,25,-99.99,,,-99.99,,2013-04-27 21:00:00,
2013-04-27 17:22:00,61.0,25.0,-100.00,SE,127,5.0,12.0,25,-99.99,,,-99.99,,2013-04-27 21:22:00,
2013-04-27 17:33:00,61.0,25.0,-100.00,SE,127,5.0,12.0,25,-99.99,,,-99.99,,2013-04-27 21:33:00,
2013-04-27 17:43:00,61.0,25.0,-100.00,SE,127,5.0,12.0,25,-99.99,,,-99.99,,2013-04-27 21:43:00,
2013-04-27 17:53:00,61.0,25.0,-100.00,SE,127,5.0,12.0,25,-99.99,,,-99.99,,2013-04-27 21:53:00,
2013-04-27 18:00:00,60.0,28.0,-100.00,SSE,159,3.0,10.0,30,-99.99,,,-99.99,,2013-04-27 22:00:00,
2013-04-27 18:23:00,60.0,28.0,-100.00,SSE,159,3.0,10.0,30,-99.99,,,-99.99,,2013-04-27 22:23:00,
2013-04-27 18:32:00,60.0,28.0,-100.00,SSE,159,3.0,10.0,30,-99.99,,,-99.99,,2013-04-27 22:32:00,
2013-04-27 18:42:00,60.0,28.0,-100.00,SSE,159,3.0,10.0,30,-99.99,,,-99.99,,2013-04-27 22:42:00,
2013-04-27 18:53:00,60.0,28.0,-100.00,SSE,159,3.0,10.0,30,-99.99,,,-99.99,,2013-04-27 22:53:00,
2013-04-27 19:00:00,56.0,30.0,-100.00,South,190,3.0,11.0,36,-99.99,,,-99.99,,2013-04-27 23:00:00,
2013-04-27 19:22:00,56.0,30.0,-100.00,South,190,3.0,11.0,36,-99.99,,,-99.99,,2013-04-27 23:22:00,
2013-04-27 19:32:00,56.0,30.0,-100.00,South,190,3.0,11.0,36,-99.99,,,-99.99,,2013-04-27 23:32:00,
2013-04-27 19:42:00,56.0,30.0,-100.00,South,190,3.0,11.0,36,-99.99,,,-99.99,,2013-04-27 23:42:00,
2013-04-27 19:52:00,56.0,30.0,-100.00,South,190,3.0,11.0,36,-99.99,,,-99.99,,2013-04-27 23:52:00,
2013-04-27 20:00:00,54.0,34.0,-100.00,SSW,197,0.0,11.0,48,-99.99,,,-99.99,,2013-04-28 00:00:00,
2013-04-27 20:22:00,54.0,34.0,-100.00,SSW,197,0.0,11.0,48,-99.99,,,-99.99,,2013-04-28 00:22:00,
2013-04-27 20:32:00,54.0,34.0,-100.00,SSW,197,0.0,11.0,48,-99.99,,,-99.99,,2013-04-28 00:32:00,
2013-04-27 20:43:00,54.0,34.0,-100.00,SSW,197,0.0,11.0,48,-99.99,,,-99.99,,2013-04-28 00:43:00,
2013-04-27 20:52:00,54.0,34.0,-100.00,SSW,197,0.0,11.0,48,-99.99,,,-99.99,,2013-04-28 00:52:00,
2013-04-27 21:00:00,52.0,33.0,-100.00,South,179,0.0,6.0,47,-99.99,,,-99.99,,2013-04-28 01:00:00,
2013-04-27 21:22:00,52.0,33.0,-100.00,South,179,0.0,6.0,47,-99.99,,,-99.99,,2013-04-28 01:22:00,
2013-04-27 21:32:00,52.0,33.0,-100.00,South,179,0.0,6.0,47,-99.99,,,-99.99,,2013-04-28 01:32:00,
2013-04-27 21:42:00,52.0,33.0,-100.00,South,179,0.0,6.0,47,-99.99,,,-99.99,,2013-04-28 01:42:00,
2013-04-27 21:52:00,52.0,33.0,-100.00,South,179,0.0,6.0,47,-99.99,,,-99.99,,2013-04-28 01:52:00,
2013-04-27 22:00:00,50.0,33.0,-100.00,SSW,207,0.0,2.0,52,-99.99,,,-99.99,,2013-04-28 02:00:00,
2013-04-27 22:22:00,50.0,33.0,-100.00,SSW,207,0.0,2.0,52,-99.99,,,-99.99,,2013-04-28 02:22:00,
2013-04-27 22:32:00,50.0,33.0,-100.00,SSW,207,0.0,2.0,52,-99.99,,,-99.99,,2013-04-28 02:32:00,
2013-04-27 22:42:00,50.0,33.0,-100.00,SSW,207,0.0,2.0,52,-99.99,,,-99.99,,2013-04-28 02:42:00,
2013-04-27 22:52:00,50.0,33.0,-100.00,SSW,207,0.0,2.0,52,-99.99,,,-99.99,,2013-04-28 02:52:00,
2013-04-27 23:00:00,48.0,-99.9,-100.00,WSW,237,0.0,2.0,57,-99.99,,,-99.99,,2013-04-28 03:00:00,
2013-04-27 23:22:00,48.0,33.0,-100.00,WSW,237,0.0,2.0,57,-99.99,,,-99.99,,2013-04-28 03:22:00,
2013-04-27 23:33:00,48.0,33.0,-100.00,WSW,237,0.0,2.0,57,-99.99,,,-99.99,,2013-04-28 03:33:00,
2013-04-27 23:43:00,48.0,33.0,-100.00,WSW,237,0.0,2.0,57,-99.99,,,-99.99,,2013-04-28 03:43:00,
2013-04-27 23:53:00,48.0,33.0,-100.00,WSW,237,0.0,2.0,57,-99.99,,,-99.99,,2013-04-28 03:53:00,